Voltar ao catálogo

FENGYUN 1C DEB

AtivoPO
NORAD 32152·DEBRIS·🇨🇳 China

Lançado May 10, 1999 de Taiyuan Satellite Launch Center

Loading…

Próximas Passagens (próximas 24 horas)

TLE

EnvelhecendoSource: Space-Track

Época: Sep 6, 2026, 05:41 UTC

1 32152U 99025CSW 26249.23730542  .00003037  00000-0  63125-3 0  9990
2 32152  98.7798  70.1531 0053337 102.0856 258.6325 14.60005761665124

Acompanhe FENGYUN 1C DEB em tempo real com AllMySat

Download on the App Store